owner,sensor,date,latitude,longitude,air_pressure(mBar),qcFlag 
LUMCON,ioos:station:LUMCON:103:1,2007-01-02T17:00:00Z,30.1889,-90.1683,1027.7,11111222 
LUMCON,ioos:station:LUMCON:103:1,2007-01-02T18:00:00Z,30.1889,-90.1683,1026.3,11111222 
LUMCON,ioos:station:LUMCON:103:1,2007-01-02T19:00:00Z,30.1889,-90.1683,1025.3,11111222 
LUMCON,ioos:station:LUMCON:103:1,2007-01-02T20:00:00Z,30.1889,-90.1683,1025.5,11111222 
LUMCON,ioos:station:LUMCON:103:1,2007-01-02T21:00:00Z,30.1889,-90.1683,1025.1,11111222 
LUMCON,ioos:station:LUMCON:103:1,2007-01-02T22:00:00Z,30.1889,-90.1683,1025.3,11111222 
LUMCON,ioos:station:LUMCON:103:1,2007-01-02T23:00:00Z,30.1889,-90.1683,1025.4,11111222 
LUMCON,ioos:station:LUMCON:103:1,2007-01-03T00:00:00Z,30.1889,-90.1683,1025.7,11111222 
LUMCON,ioos:station:LUMCON:103:1,2007-01-03T01:00:00Z,30.1889,-90.1683,1026.2,11111222 
LUMCON,ioos:station:LUMCON:103:1,2007-01-03T02:00:00Z,30.1889,-90.1683,1026.6,11111222 
LUMCON,ioos:station:LUMCON:103:1,2007-01-03T03:00:00Z,30.1889,-90.1683,1026.5,11111222 
LUMCON,ioos:station:LUMCON:103:1,2007-01-03T04:00:00Z,30.1889,-90.1683,1026.1,11111222 
LUMCON,ioos:station:LUMCON:103:1,2007-01-03T05:00:00Z,30.1889,-90.1683,1025.8,11111222 
LUMCON,ioos:station:LUMCON:103:1,2007-01-03T06:00:00Z,30.1889,-90.1683,1025.4,11111222 
LUMCON,ioos:station:LUMCON:103:1,2007-01-03T07:00:00Z,30.1889,-90.1683,1025.4,11111222 
LUMCON,ioos:station:LUMCON:103:1,2007-01-03T08:00:00Z,30.1889,-90.1683,1025.5,11111222 
LUMCON,ioos:station:LUMCON:103:1,2007-01-03T09:00:00Z,30.1889,-90.1683,1025.2,11111222 
LUMCON,ioos:station:LUMCON:103:1,2007-01-03T10:00:00Z,30.1889,-90.1683,1025.1,11111222 
LUMCON,ioos:station:LUMCON:103:1,2007-01-03T11:00:00Z,30.1889,-90.1683,1025.0,11111222 
LUMCON,ioos:station:LUMCON:103:1,2007-01-03T12:00:00Z,30.1889,-90.1683,1024.9,11111222 
LUMCON,ioos:station:LUMCON:103:1,2007-01-03T13:00:00Z,30.1889,-90.1683,1025.7,11111222 
LUMCON,ioos:station:LUMCON:103:1,2007-01-03T14:00:00Z,30.1889,-90.1683,1026.7,11111222 
LUMCON,ioos:station:LUMCON:103:1,2007-01-03T15:00:00Z,30.1889,-90.1683,1026.7,11111222 
LUMCON,ioos:station:LUMCON:103:1,2007-01-03T16:00:00Z,30.1889,-90.1683,1027.0,11111222 
LUMCON,ioos:station:LUMCON:103:1,2007-01-03T17:00:00Z,30.1889,-90.1683,1026.9,11111222 
LUMCON,ioos:station:LUMCON:103:1,2007-01-03T18:00:00Z,30.1889,-90.1683,1026.0,11111222 
LUMCON,ioos:station:LUMCON:103:1,2007-01-03T19:00:00Z,30.1889,-90.1683,1024.8,11111222 
LUMCON,ioos:station:LUMCON:103:1,2007-01-03T20:00:00Z,30.1889,-90.1683,1024.2,11111222 
LUMCON,ioos:station:LUMCON:103:1,2007-01-03T21:00:00Z,30.1889,-90.1683,1023.8,11111222 
LUMCON,ioos:station:LUMCON:103:1,2007-01-03T22:00:00Z,30.1889,-90.1683,1023.8,11111222 
LUMCON,ioos:station:LUMCON:103:1,2007-01-03T23:00:00Z,30.1889,-90.1683,1023.8,11111222 
LUMCON,ioos:station:LUMCON:103:1,2007-01-04T00:00:00Z,30.1889,-90.1683,1023.8,11111222 
LUMCON,ioos:station:LUMCON:103:1,2007-01-04T01:00:00Z,30.1889,-90.1683,1023.3,11111222 
LUMCON,ioos:station:LUMCON:103:1,2007-01-04T02:00:00Z,30.1889,-90.1683,1022.8,11111222 
LUMCON,ioos:station:LUMCON:103:1,2007-01-04T03:00:00Z,30.1889,-90.1683,1022.2,11111222 
LUMCON,ioos:station:LUMCON:103:1,2007-01-04T04:00:00Z,30.1889,-90.1683,1022.0,11111222 
LUMCON,ioos:station:LUMCON:103:1,2007-01-04T05:00:00Z,30.1889,-90.1683,1021.6,11111222 
LUMCON,ioos:station:LUMCON:103:1,2007-01-04T06:00:00Z,30.1889,-90.1683,1020.6,11111222 
LUMCON,ioos:station:LUMCON:103:1,2007-01-04T07:00:00Z,30.1889,-90.1683,1019.7,11111222 
LUMCON,ioos:station:LUMCON:103:1,2007-01-04T08:00:00Z,30.1889,-90.1683,1018.7,11111222 
LUMCON,ioos:station:LUMCON:103:1,2007-01-04T09:00:00Z,30.1889,-90.1683,1018.2,11111222 
LUMCON,ioos:station:LUMCON:103:1,2007-01-04T10:00:00Z,30.1889,-90.1683,1018.3,11111222 
LUMCON,ioos:station:LUMCON:103:1,2007-01-04T11:00:00Z,30.1889,-90.1683,1017.8,11111222 
LUMCON,ioos:station:LUMCON:103:1,2007-01-04T12:00:00Z,30.1889,-90.1683,1017.2,11111222 
LUMCON,ioos:station:LUMCON:103:1,2007-01-04T13:00:00Z,30.1889,-90.1683,1017.1,11111222 
LUMCON,ioos:station:LUMCON:103:1,2007-01-04T14:00:00Z,30.1889,-90.1683,1017.0,11111222 
LUMCON,ioos:station:LUMCON:103:1,2007-01-04T15:00:00Z,30.1889,-90.1683,1016.7,11111222 
LUMCON,ioos:station:LUMCON:103:1,2007-01-04T16:00:00Z,30.1889,-90.1683,1016.2,11111222 
LUMCON,ioos:station:LUMCON:103:1,2007-01-04T17:00:00Z,30.1889,-90.1683,1015.1,11111222 
LUMCON,ioos:station:LUMCON:103:1,2007-01-05T03:00:00Z,30.1889,-90.1683,1010.1,11111222 
LUMCON,ioos:station:LUMCON:103:1,2007-01-06T00:00:00Z,30.1889,-90.1683,1011.8,11111222 
LUMCON,ioos:station:LUMCON:103:1,2007-01-06T01:00:00Z,30.1889,-90.1683,1012.2,11111222 
LUMCON,ioos:station:LUMCON:103:1,2007-01-06T02:00:00Z,30.1889,-90.1683,1012.6,11111222 
LUMCON,ioos:station:LUMCON:103:1,2007-01-06T03:00:00Z,30.1889,-90.1683,1012.6,11111222 
LUMCON,ioos:station:LUMCON:103:1,2007-01-06T04:00:00Z,30.1889,-90.1683,1012.8,11111222 
LUMCON,ioos:station:LUMCON:103:1,2007-01-06T05:00:00Z,30.1889,-90.1683,1013.0,11111222 
LUMCON,ioos:station:LUMCON:103:1,2007-01-06T09:00:00Z,30.1889,-90.1683,1014.4,11111222 
LUMCON,ioos:station:LUMCON:103:1,2007-01-06T10:00:00Z,30.1889,-90.1683,1014.7,11111222 
LUMCON,ioos:station:LUMCON:103:1,2007-01-06T11:00:00Z,30.1889,-90.1683,1014.9,11111222 
LUMCON,ioos:station:LUMCON:103:1,2007-01-06T12:00:00Z,30.1889,-90.1683,1015.3,11111222 
LUMCON,ioos:station:LUMCON:103:1,2007-01-06T13:00:00Z,30.1889,-90.1683,1015.9,11111222 
LUMCON,ioos:station:LUMCON:103:1,2007-01-06T14:00:00Z,30.1889,-90.1683,1016.5,11111222 
LUMCON,ioos:station:LUMCON:103:1,2007-01-06T16:00:00Z,30.1889,-90.1683,1018.2,11111222 
LUMCON,ioos:station:LUMCON:103:1,2007-01-06T17:00:00Z,30.1889,-90.1683,1017.8,11111222 
LUMCON,ioos:station:LUMCON:103:1,2007-01-06T18:00:00Z,30.1889,-90.1683,1016.9,11111222 
LUMCON,ioos:station:LUMCON:103:1,2007-01-06T19:00:00Z,30.1889,-90.1683,1016.2,11111222 
LUMCON,ioos:station:LUMCON:103:1,2007-01-06T20:00:00Z,30.1889,-90.1683,1015.9,11111222 
LUMCON,ioos:station:LUMCON:103:1,2007-01-06T21:00:00Z,30.1889,-90.1683,1015.4,11111222 
LUMCON,ioos:station:LUMCON:103:1,2007-01-06T22:00:00Z,30.1889,-90.1683,1015.7,11111222 
LUMCON,ioos:station:LUMCON:103:1,2007-01-06T23:00:00Z,30.1889,-90.1683,1015.7,11111222 
LUMCON,ioos:station:LUMCON:103:1,2007-01-07T00:00:00Z,30.1889,-90.1683,1016.2,11111222 
LUMCON,ioos:station:LUMCON:103:1,2007-01-07T01:00:00Z,30.1889,-90.1683,1016.3,11111222 
LUMCON,ioos:station:LUMCON:103:1,2007-01-07T04:00:00Z,30.1889,-90.1683,1016.9,11111222 
LUMCON,ioos:station:LUMCON:103:1,2007-01-07T06:00:00Z,30.1889,-90.1683,1016.2,11111222 
LUMCON,ioos:station:LUMCON:103:1,2007-01-08T22:00:00Z,30.1889,-90.1683,1024.1,11111222 
LUMCON,ioos:station:LUMCON:103:1,2007-01-08T23:00:00Z,30.1889,-90.1683,1024.5,11111222 
LUMCON,ioos:station:LUMCON:103:1,2007-01-09T00:00:00Z,30.1889,-90.1683,1025.0,11111222 
LUMCON,ioos:station:LUMCON:103:1,2007-01-09T01:00:00Z,30.1889,-90.1683,1025.2,11111222 
LUMCON,ioos:station:LUMCON:103:1,2007-01-09T02:00:00Z,30.1889,-90.1683,1025.7,11111222 
LUMCON,ioos:station:LUMCON:103:1,2007-01-09T03:00:00Z,30.1889,-90.1683,1026.5,11111222 
LUMCON,ioos:station:LUMCON:103:1,2007-01-09T04:00:00Z,30.1889,-90.1683,1027.0,11111222 
LUMCON,ioos:station:LUMCON:103:1,2007-01-09T05:00:00Z,30.1889,-90.1683,1027.3,11111222 
LUMCON,ioos:station:LUMCON:103:1,2007-01-09T06:00:00Z,30.1889,-90.1683,1027.2,11111222 
LUMCON,ioos:station:LUMCON:103:1,2007-01-09T07:00:00Z,30.1889,-90.1683,1027.2,11111222 
LUMCON,ioos:station:LUMCON:103:1,2007-01-09T08:00:00Z,30.1889,-90.1683,1027.3,11111222 
LUMCON,ioos:station:LUMCON:103:1,2007-01-09T09:00:00Z,30.1889,-90.1683,1027.2,11111222 
LUMCON,ioos:station:LUMCON:103:1,2007-01-09T10:00:00Z,30.1889,-90.1683,1027.6,11111222 
LUMCON,ioos:station:LUMCON:103:1,2007-01-09T11:00:00Z,30.1889,-90.1683,1028.4,11111222 
LUMCON,ioos:station:LUMCON:103:1,2007-01-09T12:00:00Z,30.1889,-90.1683,1028.9,11111222 
LUMCON,ioos:station:LUMCON:103:1,2007-01-09T13:00:00Z,30.1889,-90.1683,1029.3,11111222 
LUMCON,ioos:station:LUMCON:103:1,2007-01-09T14:00:00Z,30.1889,-90.1683,1029.9,11111222 
LUMCON,ioos:station:LUMCON:103:1,2007-01-09T15:00:00Z,30.1889,-90.1683,1030.5,11111222 
LUMCON,ioos:station:LUMCON:103:1,2007-01-09T16:00:00Z,30.1889,-90.1683,1030.8,11111222 
LUMCON,ioos:station:LUMCON:103:1,2007-01-09T17:00:00Z,30.1889,-90.1683,1030.4,11111222 
LUMCON,ioos:station:LUMCON:103:1,2007-01-09T18:00:00Z,30.1889,-90.1683,1029.1,11111222 
LUMCON,ioos:station:LUMCON:103:1,2007-01-09T19:00:00Z,30.1889,-90.1683,1027.7,11111222 
LUMCON,ioos:station:LUMCON:103:1,2007-01-09T20:00:00Z,30.1889,-90.1683,1026.9,11111222 
LUMCON,ioos:station:LUMCON:103:1,2007-01-09T21:00:00Z,30.1889,-90.1683,1026.5,11111222 
LUMCON,ioos:station:LUMCON:103:1,2007-01-09T22:00:00Z,30.1889,-90.1683,1026.8,11111222 
LUMCON,ioos:station:LUMCON:103:1,2007-01-09T23:00:00Z,30.1889,-90.1683,1027.3,11111222 
LUMCON,ioos:station:LUMCON:103:1,2007-01-10T00:00:00Z,30.1889,-90.1683,1027.8,11111222 
LUMCON,ioos:station:LUMCON:103:1,2007-01-10T01:00:00Z,30.1889,-90.1683,1028.6,11111222 
LUMCON,ioos:station:LUMCON:103:1,2007-01-10T02:00:00Z,30.1889,-90.1683,1029.3,11111222 
LUMCON,ioos:station:LUMCON:103:1,2007-01-10T03:00:00Z,30.1889,-90.1683,1029.7,11111222 
LUMCON,ioos:station:LUMCON:103:1,2007-01-10T04:00:00Z,30.1889,-90.1683,1030.1,11111222 
LUMCON,ioos:station:LUMCON:103:1,2007-01-10T05:00:00Z,30.1889,-90.1683,1030.3,11111222 
LUMCON,ioos:station:LUMCON:103:1,2007-01-10T06:00:00Z,30.1889,-90.1683,1029.9,11111222 
LUMCON,ioos:station:LUMCON:103:1,2007-01-10T07:00:00Z,30.1889,-90.1683,1029.8,11111222 
LUMCON,ioos:station:LUMCON:103:1,2007-01-10T08:00:00Z,30.1889,-90.1683,1029.8,11111222 
LUMCON,ioos:station:LUMCON:103:1,2007-01-10T09:00:00Z,30.1889,-90.1683,1029.4,11111222 
LUMCON,ioos:station:LUMCON:103:1,2007-01-10T10:00:00Z,30.1889,-90.1683,1029.3,11111222 
LUMCON,ioos:station:LUMCON:103:1,2007-01-10T11:00:00Z,30.1889,-90.1683,1029.4,11111222 
LUMCON,ioos:station:LUMCON:103:1,2007-01-10T12:00:00Z,30.1889,-90.1683,1029.5,11111222 
LUMCON,ioos:station:LUMCON:103:1,2007-01-10T13:00:00Z,30.1889,-90.1683,1029.6,11111222 
LUMCON,ioos:station:LUMCON:103:1,2007-01-10T14:00:00Z,30.1889,-90.1683,1030.3,11111222 
LUMCON,ioos:station:LUMCON:103:1,2007-01-10T15:00:00Z,30.1889,-90.1683,1030.8,11111222 
LUMCON,ioos:station:LUMCON:103:1,2007-01-10T16:00:00Z,30.1889,-90.1683,1031.3,11111222 
LUMCON,ioos:station:LUMCON:103:1,2007-01-10T17:00:00Z,30.1889,-90.1683,1030.8,11111222 
LUMCON,ioos:station:LUMCON:103:1,2007-01-10T18:00:00Z,30.1889,-90.1683,1029.8,11111222 
LUMCON,ioos:station:LUMCON:103:1,2007-01-10T19:00:00Z,30.1889,-90.1683,1029.0,11111222 
LUMCON,ioos:station:LUMCON:103:1,2007-01-10T20:00:00Z,30.1889,-90.1683,1028.4,11111222 
LUMCON,ioos:station:LUMCON:103:1,2007-01-10T21:00:00Z,30.1889,-90.1683,1027.9,11111222 
LUMCON,ioos:station:LUMCON:103:1,2007-01-10T22:00:00Z,30.1889,-90.1683,1027.5,11111222 
LUMCON,ioos:station:LUMCON:103:1,2007-01-12T13:00:00Z,30.1889,-90.1683,1024.4,11111222 
LUMCON,ioos:station:LUMCON:103:1,2007-01-12T14:00:00Z,30.1889,-90.1683,1025.0,11111222 
LUMCON,ioos:station:LUMCON:103:1,2007-01-12T15:00:00Z,30.1889,-90.1683,1025.6,11111222 
LUMCON,ioos:station:LUMCON:103:1,2007-01-13T00:00:00Z,30.1889,-90.1683,1024.2,11111222 
LUMCON,ioos:station:LUMCON:103:1,2007-01-13T01:00:00Z,30.1889,-90.1683,1024.5,11111222 
LUMCON,ioos:station:LUMCON:103:1,2007-01-13T04:00:00Z,30.1889,-90.1683,1025.0,11111222 
LUMCON,ioos:station:LUMCON:103:1,2007-01-13T05:00:00Z,30.1889,-90.1683,1024.8,11111222 
LUMCON,ioos:station:LUMCON:103:1,2007-01-13T06:00:00Z,30.1889,-90.1683,1024.6,11111222 
LUMCON,ioos:station:LUMCON:103:1,2007-01-13T07:00:00Z,30.1889,-90.1683,1024.2,11111222 
LUMCON,ioos:station:LUMCON:103:1,2007-01-13T08:00:00Z,30.1889,-90.1683,1023.7,11111222 
LUMCON,ioos:station:LUMCON:103:1,2007-01-13T09:00:00Z,30.1889,-90.1683,1023.2,11111222 
LUMCON,ioos:station:LUMCON:103:1,2007-01-13T10:00:00Z,30.1889,-90.1683,1023.3,11111222 
LUMCON,ioos:station:LUMCON:103:1,2007-01-13T11:00:00Z,30.1889,-90.1683,1023.2,11111222 
LUMCON,ioos:station:LUMCON:103:1,2007-01-13T12:00:00Z,30.1889,-90.1683,1023.3,11111222 
LUMCON,ioos:station:LUMCON:103:1,2007-01-13T14:00:00Z,30.1889,-90.1683,1024.6,11111222 
LUMCON,ioos:station:LUMCON:103:1,2007-01-13T15:00:00Z,30.1889,-90.1683,1025.5,11111222 
LUMCON,ioos:station:LUMCON:103:1,2007-01-13T16:00:00Z,30.1889,-90.1683,1025.4,11111222 
LUMCON,ioos:station:LUMCON:103:1,2007-01-13T17:00:00Z,30.1889,-90.1683,1025.2,11111222 
LUMCON,ioos:station:LUMCON:103:1,2007-01-13T18:00:00Z,30.1889,-90.1683,1024.2,11111222 
LUMCON,ioos:station:LUMCON:103:1,2007-01-13T19:00:00Z,30.1889,-90.1683,1023.1,11111222 
LUMCON,ioos:station:LUMCON:103:1,2007-01-13T20:00:00Z,30.1889,-90.1683,1022.3,11111222 
LUMCON,ioos:station:LUMCON:103:1,2007-01-13T21:00:00Z,30.1889,-90.1683,1021.8,11111222 
LUMCON,ioos:station:LUMCON:103:1,2007-01-13T22:00:00Z,30.1889,-90.1683,1021.5,11111222 
LUMCON,ioos:station:LUMCON:103:1,2007-01-13T23:00:00Z,30.1889,-90.1683,1021.8,11111222 
LUMCON,ioos:station:LUMCON:103:1,2007-01-14T00:00:00Z,30.1889,-90.1683,1022.1,11111222 
LUMCON,ioos:station:LUMCON:103:1,2007-01-14T01:00:00Z,30.1889,-90.1683,1022.2,11111222 
LUMCON,ioos:station:LUMCON:103:1,2007-01-14T02:00:00Z,30.1889,-90.1683,1021.8,11111222 
LUMCON,ioos:station:LUMCON:103:1,2007-01-14T04:00:00Z,30.1889,-90.1683,1022.0,11111222 
LUMCON,ioos:station:LUMCON:103:1,2007-01-14T10:00:00Z,30.1889,-90.1683,1020.8,11111222 
LUMCON,ioos:station:LUMCON:103:1,2007-01-14T11:00:00Z,30.1889,-90.1683,1020.8,11111222 
LUMCON,ioos:station:LUMCON:103:1,2007-01-14T14:00:00Z,30.1889,-90.1683,1022.1,11111222 
LUMCON,ioos:station:LUMCON:103:1,2007-01-14T16:00:00Z,30.1889,-90.1683,1022.5,11111222 
LUMCON,ioos:station:LUMCON:103:1,2007-01-14T17:00:00Z,30.1889,-90.1683,1022.1,11111222 
LUMCON,ioos:station:LUMCON:103:1,2007-01-14T18:00:00Z,30.1889,-90.1683,1021.0,11111222 
LUMCON,ioos:station:LUMCON:103:1,2007-01-14T19:00:00Z,30.1889,-90.1683,1019.9,11111222 
LUMCON,ioos:station:LUMCON:103:1,2007-01-14T20:00:00Z,30.1889,-90.1683,1019.4,11111222 
LUMCON,ioos:station:LUMCON:103:1,2007-01-14T21:00:00Z,30.1889,-90.1683,1018.9,11111222 
LUMCON,ioos:station:LUMCON:103:1,2007-01-14T22:00:00Z,30.1889,-90.1683,1018.9,11111222 
LUMCON,ioos:station:LUMCON:103:1,2007-01-14T23:00:00Z,30.1889,-90.1683,1019.0,11111222 
LUMCON,ioos:station:LUMCON:103:1,2007-01-15T00:00:00Z,30.1889,-90.1683,1019.5,11111222 
LUMCON,ioos:station:LUMCON:103:1,2007-01-15T01:00:00Z,30.1889,-90.1683,1019.9,11111222 
LUMCON,ioos:station:LUMCON:103:1,2007-01-15T02:00:00Z,30.1889,-90.1683,1019.9,11111222 
LUMCON,ioos:station:LUMCON:103:1,2007-01-15T10:00:00Z,30.1889,-90.1683,1018.1,11111222 
LUMCON,ioos:station:LUMCON:103:1,2007-01-15T11:00:00Z,30.1889,-90.1683,1018.0,11111222 
LUMCON,ioos:station:LUMCON:103:1,2007-01-15T12:00:00Z,30.1889,-90.1683,1018.6,11111222 
LUMCON,ioos:station:LUMCON:103:1,2007-01-15T13:00:00Z,30.1889,-90.1683,1018.6,11111222 
LUMCON,ioos:station:LUMCON:103:1,2007-01-15T14:00:00Z,30.1889,-90.1683,1019.0,11111222 
LUMCON,ioos:station:LUMCON:103:1,2007-01-15T16:00:00Z,30.1889,-90.1683,1020.2,11111222 
LUMCON,ioos:station:LUMCON:103:1,2007-01-15T17:00:00Z,30.1889,-90.1683,1020.2,11111222 
LUMCON,ioos:station:LUMCON:103:1,2007-01-15T19:00:00Z,30.1889,-90.1683,1018.4,11111222 
LUMCON,ioos:station:LUMCON:103:1,2007-01-15T20:00:00Z,30.1889,-90.1683,1017.5,11111222 
LUMCON,ioos:station:LUMCON:103:1,2007-01-15T21:00:00Z,30.1889,-90.1683,1017.6,11111222 
LUMCON,ioos:station:LUMCON:103:1,2007-01-15T22:00:00Z,30.1889,-90.1683,1017.6,11111222 
LUMCON,ioos:station:LUMCON:103:1,2007-01-15T23:00:00Z,30.1889,-90.1683,1018.2,11111222 
LUMCON,ioos:station:LUMCON:103:1,2007-01-16T00:00:00Z,30.1889,-90.1683,1019.3,11111222 
LUMCON,ioos:station:LUMCON:103:1,2007-01-16T01:00:00Z,30.1889,-90.1683,1020.2,11111222 
LUMCON,ioos:station:LUMCON:103:1,2007-01-16T02:00:00Z,30.1889,-90.1683,1020.7,11111222 
LUMCON,ioos:station:LUMCON:103:1,2007-01-16T03:00:00Z,30.1889,-90.1683,1021.1,11111222 
LUMCON,ioos:station:LUMCON:103:1,2007-01-16T04:00:00Z,30.1889,-90.1683,1021.4,11111222 
LUMCON,ioos:station:LUMCON:103:1,2007-01-16T05:00:00Z,30.1889,-90.1683,1021.9,11111222 
LUMCON,ioos:station:LUMCON:103:1,2007-01-16T06:00:00Z,30.1889,-90.1683,1022.5,11111222 
LUMCON,ioos:station:LUMCON:103:1,2007-01-16T07:00:00Z,30.1889,-90.1683,1023.0,11111222 
LUMCON,ioos:station:LUMCON:103:1,2007-01-16T08:00:00Z,30.1889,-90.1683,1023.9,11111222 
LUMCON,ioos:station:LUMCON:103:1,2007-01-16T09:00:00Z,30.1889,-90.1683,1024.5,11111222 
LUMCON,ioos:station:LUMCON:103:1,2007-01-16T10:00:00Z,30.1889,-90.1683,1025.4,11111222 
LUMCON,ioos:station:LUMCON:103:1,2007-01-16T11:00:00Z,30.1889,-90.1683,1025.6,11111222 
LUMCON,ioos:station:LUMCON:103:1,2007-01-16T12:00:00Z,30.1889,-90.1683,1025.7,11111222 
LUMCON,ioos:station:LUMCON:103:1,2007-01-16T13:00:00Z,30.1889,-90.1683,1026.4,11111222 
LUMCON,ioos:station:LUMCON:103:1,2007-01-16T14:00:00Z,30.1889,-90.1683,1026.3,11111222 
LUMCON,ioos:station:LUMCON:103:1,2007-01-16T15:00:00Z,30.1889,-90.1683,1026.7,11111222 
LUMCON,ioos:station:LUMCON:103:1,2007-01-16T16:00:00Z,30.1889,-90.1683,1027.7,11111222 
LUMCON,ioos:station:LUMCON:103:1,2007-01-16T17:00:00Z,30.1889,-90.1683,1028.2,11111222 
LUMCON,ioos:station:LUMCON:103:1,2007-01-16T18:00:00Z,30.1889,-90.1683,1028.6,11111222 
LUMCON,ioos:station:LUMCON:103:1,2007-01-16T19:00:00Z,30.1889,-90.1683,1027.7,11111222 
LUMCON,ioos:station:LUMCON:103:1,2007-01-16T20:00:00Z,30.1889,-90.1683,1027.3,11111222 
LUMCON,ioos:station:LUMCON:103:1,2007-01-16T21:00:00Z,30.1889,-90.1683,1027.4,11111222 
LUMCON,ioos:station:LUMCON:103:1,2007-01-16T22:00:00Z,30.1889,-90.1683,1028.9,11111222 
LUMCON,ioos:station:LUMCON:103:1,2007-01-16T23:00:00Z,30.1889,-90.1683,1028.6,11111222 
LUMCON,ioos:station:LUMCON:103:1,2007-01-17T00:00:00Z,30.1889,-90.1683,1028.9,11111222 
LUMCON,ioos:station:LUMCON:103:1,2007-01-17T01:00:00Z,30.1889,-90.1683,1029.5,11111222 
LUMCON,ioos:station:LUMCON:103:1,2007-01-17T02:00:00Z,30.1889,-90.1683,1029.3,11111222 
LUMCON,ioos:station:LUMCON:103:1,2007-01-17T03:00:00Z,30.1889,-90.1683,1030.4,11111222 
LUMCON,ioos:station:LUMCON:103:1,2007-01-17T04:00:00Z,30.1889,-90.1683,1030.6,11111222 
LUMCON,ioos:station:LUMCON:103:1,2007-01-17T05:00:00Z,30.1889,-90.1683,1030.8,11111222 
LUMCON,ioos:station:LUMCON:103:1,2007-01-17T06:00:00Z,30.1889,-90.1683,1030.8,11111222 
LUMCON,ioos:station:LUMCON:103:1,2007-01-17T07:00:00Z,30.1889,-90.1683,1030.2,11111222 
LUMCON,ioos:station:LUMCON:103:1,2007-01-17T08:00:00Z,30.1889,-90.1683,1029.8,11111222 
LUMCON,ioos:station:LUMCON:103:1,2007-01-17T09:00:00Z,30.1889,-90.1683,1029.2,11111222 
LUMCON,ioos:station:LUMCON:103:1,2007-01-17T10:00:00Z,30.1889,-90.1683,1029.1,11111222 
LUMCON,ioos:station:LUMCON:103:1,2007-01-17T11:00:00Z,30.1889,-90.1683,1029.7,11111222 
LUMCON,ioos:station:LUMCON:103:1,2007-01-17T12:00:00Z,30.1889,-90.1683,1029.8,11111222 
LUMCON,ioos:station:LUMCON:103:1,2007-01-17T13:00:00Z,30.1889,-90.1683,1030.4,11111222 
LUMCON,ioos:station:LUMCON:103:1,2007-01-17T14:00:00Z,30.1889,-90.1683,1030.9,11111222 
LUMCON,ioos:station:LUMCON:103:1,2007-01-17T15:00:00Z,30.1889,-90.1683,1031.3,11111222 
LUMCON,ioos:station:LUMCON:103:1,2007-01-17T16:00:00Z,30.1889,-90.1683,1031.9,11111222 
LUMCON,ioos:station:LUMCON:103:1,2007-01-17T17:00:00Z,30.1889,-90.1683,1032.0,11111222 
LUMCON,ioos:station:LUMCON:103:1,2007-01-17T18:00:00Z,30.1889,-90.1683,1031.3,11111222 
LUMCON,ioos:station:LUMCON:103:1,2007-01-17T19:00:00Z,30.1889,-90.1683,1030.9,11111222 
LUMCON,ioos:station:LUMCON:103:1,2007-01-17T20:00:00Z,30.1889,-90.1683,1030.2,11111222 
LUMCON,ioos:station:LUMCON:103:1,2007-01-17T21:00:00Z,30.1889,-90.1683,1029.1,11111222 
LUMCON,ioos:station:LUMCON:103:1,2007-01-17T22:00:00Z,30.1889,-90.1683,1028.3,11111222 
LUMCON,ioos:station:LUMCON:103:1,2007-01-17T23:00:00Z,30.1889,-90.1683,1028.9,11111222 
LUMCON,ioos:station:LUMCON:103:1,2007-01-18T00:00:00Z,30.1889,-90.1683,1029.6,11111222 
LUMCON,ioos:station:LUMCON:103:1,2007-01-18T01:00:00Z,30.1889,-90.1683,1030.3,11111222 
LUMCON,ioos:station:LUMCON:103:1,2007-01-18T02:00:00Z,30.1889,-90.1683,1030.7,11111222 
LUMCON,ioos:station:LUMCON:103:1,2007-01-18T03:00:00Z,30.1889,-90.1683,1030.2,11111222 
LUMCON,ioos:station:LUMCON:103:1,2007-01-18T04:00:00Z,30.1889,-90.1683,1029.7,11111222 
LUMCON,ioos:station:LUMCON:103:1,2007-01-18T05:00:00Z,30.1889,-90.1683,1028.8,11111222 
LUMCON,ioos:station:LUMCON:103:1,2007-01-18T06:00:00Z,30.1889,-90.1683,1028.8,11111222 
LUMCON,ioos:station:LUMCON:103:1,2007-01-18T07:00:00Z,30.1889,-90.1683,1028.2,11111222 
LUMCON,ioos:station:LUMCON:103:1,2007-01-18T08:00:00Z,30.1889,-90.1683,1027.6,11111222 
LUMCON,ioos:station:LUMCON:103:1,2007-01-18T09:00:00Z,30.1889,-90.1683,1027.6,11111222 
LUMCON,ioos:station:LUMCON:103:1,2007-01-18T10:00:00Z,30.1889,-90.1683,1027.6,11111222 
LUMCON,ioos:station:LUMCON:103:1,2007-01-18T11:00:00Z,30.1889,-90.1683,1027.0,11111222 
LUMCON,ioos:station:LUMCON:103:1,2007-01-18T12:00:00Z,30.1889,-90.1683,1027.3,11111222 
LUMCON,ioos:station:LUMCON:103:1,2007-01-18T13:00:00Z,30.1889,-90.1683,1027.8,11111222 
LUMCON,ioos:station:LUMCON:103:1,2007-01-18T14:00:00Z,30.1889,-90.1683,1027.9,11111222 
LUMCON,ioos:station:LUMCON:103:1,2007-01-18T15:00:00Z,30.1889,-90.1683,1028.6,11111222 
LUMCON,ioos:station:LUMCON:103:1,2007-01-18T16:00:00Z,30.1889,-90.1683,1028.8,11111222 
LUMCON,ioos:station:LUMCON:103:1,2007-01-18T17:00:00Z,30.1889,-90.1683,1028.2,11111222 
LUMCON,ioos:station:LUMCON:103:1,2007-01-18T18:00:00Z,30.1889,-90.1683,1026.9,11111222 
LUMCON,ioos:station:LUMCON:103:1,2007-01-18T19:00:00Z,30.1889,-90.1683,1025.4,11111222 
LUMCON,ioos:station:LUMCON:103:1,2007-01-18T20:00:00Z,30.1889,-90.1683,1025.0,11111222 
LUMCON,ioos:station:LUMCON:103:1,2007-01-18T21:00:00Z,30.1889,-90.1683,1024.7,11111222 
LUMCON,ioos:station:LUMCON:103:1,2007-01-18T22:00:00Z,30.1889,-90.1683,1024.3,11111222 
LUMCON,ioos:station:LUMCON:103:1,2007-01-18T23:00:00Z,30.1889,-90.1683,1024.2,11111222 
LUMCON,ioos:station:LUMCON:103:1,2007-01-19T00:00:00Z,30.1889,-90.1683,1024.5,11111222 
LUMCON,ioos:station:LUMCON:103:1,2007-01-19T01:00:00Z,30.1889,-90.1683,1024.8,11111222 
LUMCON,ioos:station:LUMCON:103:1,2007-01-19T02:00:00Z,30.1889,-90.1683,1025.5,11111222 
LUMCON,ioos:station:LUMCON:103:1,2007-01-19T03:00:00Z,30.1889,-90.1683,1025.6,11111222 
LUMCON,ioos:station:LUMCON:103:1,2007-01-19T04:00:00Z,30.1889,-90.1683,1025.8,11111222 
LUMCON,ioos:station:LUMCON:103:1,2007-01-19T05:00:00Z,30.1889,-90.1683,1025.8,11111222 
LUMCON,ioos:station:LUMCON:103:1,2007-01-19T06:00:00Z,30.1889,-90.1683,1026.1,11111222 
LUMCON,ioos:station:LUMCON:103:1,2007-01-19T07:00:00Z,30.1889,-90.1683,1025.7,11111222 
LUMCON,ioos:station:LUMCON:103:1,2007-01-19T08:00:00Z,30.1889,-90.1683,1025.4,11111222 
LUMCON,ioos:station:LUMCON:103:1,2007-01-19T09:00:00Z,30.1889,-90.1683,1025.3,11111222 
LUMCON,ioos:station:LUMCON:103:1,2007-01-19T10:00:00Z,30.1889,-90.1683,1025.1,11111222 
LUMCON,ioos:station:LUMCON:103:1,2007-01-19T11:00:00Z,30.1889,-90.1683,1025.7,11111222 
LUMCON,ioos:station:LUMCON:103:1,2007-01-19T12:00:00Z,30.1889,-90.1683,1025.8,11111222 
LUMCON,ioos:station:LUMCON:103:1,2007-01-19T13:00:00Z,30.1889,-90.1683,1026.1,11111222 
LUMCON,ioos:station:LUMCON:103:1,2007-01-19T14:00:00Z,30.1889,-90.1683,1026.7,11111222 
LUMCON,ioos:station:LUMCON:103:1,2007-01-19T15:00:00Z,30.1889,-90.1683,1027.1,11111222 
LUMCON,ioos:station:LUMCON:103:1,2007-01-19T16:00:00Z,30.1889,-90.1683,1027.4,11111222 
LUMCON,ioos:station:LUMCON:103:1,2007-01-19T17:00:00Z,30.1889,-90.1683,1027.2,11111222 
LUMCON,ioos:station:LUMCON:103:1,2007-01-19T18:00:00Z,30.1889,-90.1683,1026.6,11111222 
LUMCON,ioos:station:LUMCON:103:1,2007-01-19T19:00:00Z,30.1889,-90.1683,1025.4,11111222 
LUMCON,ioos:station:LUMCON:103:1,2007-01-19T20:00:00Z,30.1889,-90.1683,1024.7,11111222 
LUMCON,ioos:station:LUMCON:103:1,2007-01-19T21:00:00Z,30.1889,-90.1683,1024.3,11111222 
LUMCON,ioos:station:LUMCON:103:1,2007-01-19T22:00:00Z,30.1889,-90.1683,1024.2,11111222 